Year,Month,Day,Hour,Minute,Value (Times are PST for temperature in C)
2023,10,07,00,00,13.80
2023,10,07,00,01,13.90
2023,10,07,00,02,13.90
2023,10,07,00,03,14.00
2023,10,07,00,04,14.10
2023,10,07,00,05,14.10
2023,10,07,00,06,14.10
2023,10,07,00,07,14.10
2023,10,07,00,08,14.10
2023,10,07,00,09,14.10
2023,10,07,00,10,14.10
2023,10,07,00,11,14.10
2023,10,07,00,12,14.10
2023,10,07,00,13,14.10
2023,10,07,00,14,14.10
2023,10,07,00,15,14.00
2023,10,07,00,16,14.00
2023,10,07,00,17,13.90
2023,10,07,00,18,13.90
2023,10,07,00,19,13.90
2023,10,07,00,20,13.80
2023,10,07,00,21,13.80
2023,10,07,00,22,13.80
2023,10,07,00,23,13.80
2023,10,07,00,24,13.70
2023,10,07,00,25,13.70
2023,10,07,00,26,13.70
2023,10,07,00,27,13.70
2023,10,07,00,28,13.70
2023,10,07,00,29,13.70
2023,10,07,00,30,13.70
2023,10,07,00,31,13.70
2023,10,07,00,32,13.70
2023,10,07,00,33,13.70
2023,10,07,00,34,13.70
2023,10,07,00,35,13.70
2023,10,07,00,36,13.70
2023,10,07,00,37,13.70
2023,10,07,00,38,13.70
2023,10,07,00,39,13.70
2023,10,07,00,40,13.70
2023,10,07,00,41,13.70
2023,10,07,00,42,13.70
2023,10,07,00,43,13.60
2023,10,07,00,44,13.60
2023,10,07,00,45,13.60
2023,10,07,00,46,13.60
2023,10,07,00,47,13.60
2023,10,07,00,48,13.60
2023,10,07,00,49,13.60
2023,10,07,00,50,13.50
2023,10,07,00,51,13.50
2023,10,07,00,52,13.50
2023,10,07,00,53,13.50
2023,10,07,00,54,13.50
2023,10,07,00,55,13.50
2023,10,07,00,56,13.60
2023,10,07,00,57,13.60
2023,10,07,00,58,13.60
2023,10,07,00,59,13.60
2023,10,07,01,00,13.70
2023,10,07,01,01,13.70
2023,10,07,01,02,13.70
2023,10,07,01,03,13.70
2023,10,07,01,04,13.80
2023,10,07,01,05,13.80
2023,10,07,01,06,13.80
2023,10,07,01,07,13.80
2023,10,07,01,08,13.80
2023,10,07,01,09,13.80
2023,10,07,01,10,13.90
2023,10,07,01,11,13.80
2023,10,07,01,12,13.90
2023,10,07,01,13,13.90
2023,10,07,01,14,13.90
2023,10,07,01,15,13.90
2023,10,07,01,16,14.00
2023,10,07,01,17,14.00
2023,10,07,01,18,14.00
2023,10,07,01,19,14.00
2023,10,07,01,20,13.90
2023,10,07,01,21,13.90
2023,10,07,01,22,13.90
2023,10,07,01,23,13.90
2023,10,07,01,24,14.00
2023,10,07,01,25,14.00
2023,10,07,01,26,14.00
2023,10,07,01,27,14.00
2023,10,07,01,28,14.00
2023,10,07,01,29,14.00
2023,10,07,01,30,14.00
2023,10,07,01,31,14.00
2023,10,07,01,32,14.00
2023,10,07,01,33,14.00
2023,10,07,01,34,14.00
2023,10,07,01,35,14.10
2023,10,07,01,36,14.10
2023,10,07,01,37,14.10
2023,10,07,01,38,14.10
2023,10,07,01,39,14.10
2023,10,07,01,40,14.10
2023,10,07,01,41,14.10
2023,10,07,01,42,14.10
2023,10,07,01,43,14.00
2023,10,07,01,44,13.90
2023,10,07,01,45,13.90
2023,10,07,01,46,13.90
2023,10,07,01,47,13.80
2023,10,07,01,48,13.80
2023,10,07,01,49,13.70
2023,10,07,01,50,13.70
2023,10,07,01,51,13.60
2023,10,07,01,52,13.60
2023,10,07,01,53,13.50
2023,10,07,01,54,13.40
2023,10,07,01,55,13.40
2023,10,07,01,56,13.40
2023,10,07,01,57,13.30
2023,10,07,01,58,13.30
2023,10,07,01,59,13.30
2023,10,07,02,00,13.30
2023,10,07,02,01,13.20
2023,10,07,02,02,13.20
2023,10,07,02,03,13.20
2023,10,07,02,04,13.10
2023,10,07,02,05,13.10
2023,10,07,02,06,13.10
2023,10,07,02,07,13.10
2023,10,07,02,08,13.10
2023,10,07,02,09,13.10
2023,10,07,02,10,13.10
2023,10,07,02,11,13.10
2023,10,07,02,12,13.10
2023,10,07,02,13,13.10
2023,10,07,02,14,13.10
2023,10,07,02,15,13.10
2023,10,07,02,16,13.10
2023,10,07,02,17,13.10
2023,10,07,02,18,13.10
2023,10,07,02,19,13.00
2023,10,07,02,20,13.00
2023,10,07,02,21,13.00
2023,10,07,02,22,13.00
2023,10,07,02,23,12.90
2023,10,07,02,24,12.90
2023,10,07,02,25,12.90
2023,10,07,02,26,12.90
2023,10,07,02,27,12.90
2023,10,07,02,28,12.90
2023,10,07,02,29,12.90
2023,10,07,02,30,12.80
2023,10,07,02,31,12.80
2023,10,07,02,32,12.80
2023,10,07,02,33,12.80
2023,10,07,02,34,12.80
2023,10,07,02,35,12.80
2023,10,07,02,36,12.80
2023,10,07,02,37,12.80
2023,10,07,02,38,12.80
2023,10,07,02,39,12.80
2023,10,07,02,40,12.80
2023,10,07,02,41,12.80
2023,10,07,02,42,12.80
2023,10,07,02,43,12.80
2023,10,07,02,44,12.80
2023,10,07,02,45,12.90
2023,10,07,02,46,12.90
2023,10,07,02,47,12.80
2023,10,07,02,48,12.80
2023,10,07,02,49,12.80
2023,10,07,02,50,12.80
2023,10,07,02,51,12.80
2023,10,07,02,52,12.80
2023,10,07,02,53,12.80
2023,10,07,02,54,12.80
2023,10,07,02,55,12.80
2023,10,07,02,56,12.80
2023,10,07,02,57,12.80
2023,10,07,02,58,12.80
2023,10,07,02,59,12.70
2023,10,07,03,00,12.70
2023,10,07,03,01,12.70
2023,10,07,03,02,12.70
2023,10,07,03,03,12.70
2023,10,07,03,04,12.70
2023,10,07,03,05,12.70
2023,10,07,03,06,12.70
2023,10,07,03,07,12.70
2023,10,07,03,08,12.70
2023,10,07,03,09,12.70
2023,10,07,03,10,12.70
2023,10,07,03,11,12.70
2023,10,07,03,12,12.70
2023,10,07,03,13,12.70
2023,10,07,03,14,12.70
2023,10,07,03,15,12.70
2023,10,07,03,16,12.70
2023,10,07,03,17,12.70
2023,10,07,03,18,12.70
2023,10,07,03,19,12.70
2023,10,07,03,20,12.70
2023,10,07,03,21,12.70
2023,10,07,03,22,12.70
2023,10,07,03,23,12.70
2023,10,07,03,24,12.70
2023,10,07,03,25,12.70
2023,10,07,03,26,12.70
2023,10,07,03,27,12.70
2023,10,07,03,28,12.70
2023,10,07,03,29,12.70
2023,10,07,03,30,12.70
2023,10,07,03,31,12.70
2023,10,07,03,32,12.60
2023,10,07,03,33,12.60
2023,10,07,03,34,12.60
2023,10,07,03,35,12.60
2023,10,07,03,36,12.60
2023,10,07,03,37,12.60
2023,10,07,03,38,12.60
2023,10,07,03,39,12.60
2023,10,07,03,40,12.60
2023,10,07,03,41,12.60
2023,10,07,03,42,12.50
2023,10,07,03,43,12.50
2023,10,07,03,44,12.50
2023,10,07,03,45,12.50
2023,10,07,03,46,12.50
2023,10,07,03,47,12.50
2023,10,07,03,48,12.50
2023,10,07,03,49,12.50
2023,10,07,03,50,12.50
2023,10,07,03,51,12.40
2023,10,07,03,52,12.40
2023,10,07,03,53,12.40
2023,10,07,03,54,12.40
2023,10,07,03,55,12.40
2023,10,07,03,56,12.40
2023,10,07,03,57,12.40
2023,10,07,03,58,12.30
2023,10,07,03,59,12.30
2023,10,07,04,00,12.30
2023,10,07,04,01,12.30
2023,10,07,04,02,12.30
2023,10,07,04,03,12.30
2023,10,07,04,04,12.30
2023,10,07,04,05,12.30
2023,10,07,04,06,12.30
2023,10,07,04,07,12.30
2023,10,07,04,08,12.40
2023,10,07,04,09,12.40
2023,10,07,04,10,12.40
2023,10,07,04,11,12.40
2023,10,07,04,12,12.40
2023,10,07,04,13,12.40
2023,10,07,04,14,12.50
2023,10,07,04,15,12.50
2023,10,07,04,16,12.50
2023,10,07,04,17,12.50
2023,10,07,04,18,12.50
2023,10,07,04,19,12.50
2023,10,07,04,20,12.50
2023,10,07,04,21,12.50
2023,10,07,04,22,12.50
2023,10,07,04,23,12.50
2023,10,07,04,24,12.50
2023,10,07,04,25,12.50
2023,10,07,04,26,12.50
2023,10,07,04,27,12.50
2023,10,07,04,28,12.50
2023,10,07,04,29,12.60
2023,10,07,04,30,12.50
2023,10,07,04,31,12.60
2023,10,07,04,32,12.60
2023,10,07,04,33,12.60
2023,10,07,04,34,12.60
2023,10,07,04,35,12.60
2023,10,07,04,36,12.60
2023,10,07,04,37,12.60
2023,10,07,04,38,12.60
2023,10,07,04,39,12.60
2023,10,07,04,40,12.60
2023,10,07,04,41,12.60
2023,10,07,04,42,12.60
2023,10,07,04,43,12.60
2023,10,07,04,44,12.60
2023,10,07,04,45,12.60
2023,10,07,04,46,12.60
2023,10,07,04,47,12.60
2023,10,07,04,48,12.60
2023,10,07,04,49,12.60
2023,10,07,04,50,12.60
2023,10,07,04,51,12.50
2023,10,07,04,52,12.50
2023,10,07,04,53,12.50
2023,10,07,04,54,12.50
2023,10,07,04,55,12.40
2023,10,07,04,56,12.40
2023,10,07,04,57,12.40
2023,10,07,04,58,12.40
2023,10,07,04,59,12.40
2023,10,07,05,00,12.40
2023,10,07,05,01,12.30
2023,10,07,05,02,12.30
2023,10,07,05,03,12.30
2023,10,07,05,04,12.30
2023,10,07,05,05,12.40
2023,10,07,05,06,12.30
2023,10,07,05,07,12.40
2023,10,07,05,08,12.40
2023,10,07,05,09,12.40
2023,10,07,05,10,12.40
2023,10,07,05,11,12.40
2023,10,07,05,12,12.40
2023,10,07,05,13,12.40
2023,10,07,05,14,12.40
2023,10,07,05,15,12.40
2023,10,07,05,16,12.40
2023,10,07,05,17,12.40
2023,10,07,05,18,12.40
2023,10,07,05,19,12.40
2023,10,07,05,20,12.40
2023,10,07,05,21,12.40
2023,10,07,05,22,12.40
2023,10,07,05,23,12.40
2023,10,07,05,24,12.40
2023,10,07,05,25,12.40
2023,10,07,05,26,12.40
2023,10,07,05,27,12.40
2023,10,07,05,28,12.40
2023,10,07,05,29,12.30
2023,10,07,05,30,12.30
2023,10,07,05,31,12.30
2023,10,07,05,32,12.30
2023,10,07,05,33,12.30
2023,10,07,05,34,12.30
2023,10,07,05,35,12.20
2023,10,07,05,36,12.20
2023,10,07,05,37,12.20
2023,10,07,05,38,12.20
2023,10,07,05,39,12.20
2023,10,07,05,40,12.20
2023,10,07,05,41,12.20
2023,10,07,05,42,12.10
2023,10,07,05,43,12.10
2023,10,07,05,44,12.10
2023,10,07,05,45,12.10
2023,10,07,05,46,12.10
2023,10,07,05,47,12.10
2023,10,07,05,48,12.10
2023,10,07,05,49,12.10
2023,10,07,05,50,12.10
2023,10,07,05,51,12.00
2023,10,07,05,52,12.00
2023,10,07,05,53,12.00
2023,10,07,05,54,12.00
2023,10,07,05,55,12.00
2023,10,07,05,56,12.10
2023,10,07,05,57,12.10
2023,10,07,05,58,12.10
2023,10,07,05,59,12.20
2023,10,07,06,00,12.20
2023,10,07,06,01,12.30
2023,10,07,06,02,12.30
2023,10,07,06,03,12.30
2023,10,07,06,04,12.30
2023,10,07,06,05,12.30
2023,10,07,06,06,12.30
2023,10,07,06,07,12.30
2023,10,07,06,08,12.30
2023,10,07,06,09,12.30
2023,10,07,06,10,12.30
2023,10,07,06,11,12.30
2023,10,07,06,12,12.30
2023,10,07,06,13,12.30
2023,10,07,06,14,12.30
2023,10,07,06,15,12.30
2023,10,07,06,16,12.30
2023,10,07,06,17,12.30
2023,10,07,06,18,12.30
2023,10,07,06,19,12.30
2023,10,07,06,20,12.30
2023,10,07,06,21,12.30
2023,10,07,06,22,12.20
2023,10,07,06,23,12.20
2023,10,07,06,24,12.20
2023,10,07,06,25,12.20
2023,10,07,06,26,12.20
2023,10,07,06,27,12.10
2023,10,07,06,28,12.10
2023,10,07,06,29,12.10
2023,10,07,06,30,12.10
2023,10,07,06,31,12.10
2023,10,07,06,32,12.10
2023,10,07,06,33,12.10
2023,10,07,06,34,12.10
2023,10,07,06,35,12.10
2023,10,07,06,36,12.10
2023,10,07,06,37,12.10
2023,10,07,06,38,12.10
2023,10,07,06,39,12.10
2023,10,07,06,40,12.10
2023,10,07,06,41,12.10
2023,10,07,06,42,12.10
2023,10,07,06,43,12.10
2023,10,07,06,44,12.10
2023,10,07,06,45,12.10
2023,10,07,06,46,12.10
2023,10,07,06,47,12.10
2023,10,07,06,48,12.10
2023,10,07,06,49,12.10
2023,10,07,06,50,12.10
2023,10,07,06,51,12.10
2023,10,07,06,52,12.10
2023,10,07,06,53,12.10
2023,10,07,06,54,12.10
2023,10,07,06,55,12.10
2023,10,07,06,56,12.10
2023,10,07,06,57,12.10
2023,10,07,06,58,12.10
2023,10,07,06,59,12.10
2023,10,07,07,00,12.10
2023,10,07,07,01,12.00
2023,10,07,07,02,12.00
2023,10,07,07,03,12.00
2023,10,07,07,04,12.00
2023,10,07,07,05,12.00
2023,10,07,07,06,11.90
2023,10,07,07,07,12.00
2023,10,07,07,08,12.00
2023,10,07,07,09,12.00
2023,10,07,07,10,12.10
2023,10,07,07,11,12.00
2023,10,07,07,12,12.10
2023,10,07,07,13,12.10
2023,10,07,07,14,12.10
2023,10,07,07,15,12.20
2023,10,07,07,16,12.20
2023,10,07,07,17,12.20
2023,10,07,07,18,12.20
2023,10,07,07,19,12.20
2023,10,07,07,20,12.20
2023,10,07,07,21,12.20
2023,10,07,07,22,12.10
2023,10,07,07,23,12.10
2023,10,07,07,24,12.10
2023,10,07,07,25,12.10
2023,10,07,07,26,12.00
2023,10,07,07,27,12.00
2023,10,07,07,28,12.00
2023,10,07,07,29,12.00
2023,10,07,07,30,12.00
2023,10,07,07,31,12.10
2023,10,07,07,32,12.10
2023,10,07,07,33,12.10
2023,10,07,07,34,12.20
2023,10,07,07,35,12.20
2023,10,07,07,36,12.30
2023,10,07,07,37,12.40
2023,10,07,07,38,12.40
2023,10,07,07,39,12.50
2023,10,07,07,40,12.60
2023,10,07,07,41,12.60
2023,10,07,07,42,12.70
2023,10,07,07,43,12.80
2023,10,07,07,44,12.80
2023,10,07,07,45,12.80
2023,10,07,07,46,12.80
2023,10,07,07,47,12.80
2023,10,07,07,48,12.80
2023,10,07,07,49,12.80
2023,10,07,07,50,12.90
2023,10,07,07,51,12.90
2023,10,07,07,52,12.90
2023,10,07,07,53,12.90
2023,10,07,07,54,12.90
2023,10,07,07,55,12.90
2023,10,07,07,56,12.90
2023,10,07,07,57,13.00
2023,10,07,07,58,12.90
2023,10,07,07,59,13.00
2023,10,07,08,00,12.90
2023,10,07,08,01,12.90
2023,10,07,08,02,13.00
2023,10,07,08,03,13.00
2023,10,07,08,04,13.10
2023,10,07,08,05,13.10
2023,10,07,08,06,13.20
2023,10,07,08,07,13.30
2023,10,07,08,08,13.40
2023,10,07,08,09,13.40
2023,10,07,08,10,13.50
2023,10,07,08,11,13.60
2023,10,07,08,12,13.60
2023,10,07,08,13,13.60
2023,10,07,08,14,13.60
2023,10,07,08,15,13.60
2023,10,07,08,16,13.70
2023,10,07,08,17,13.70
2023,10,07,08,18,13.70
2023,10,07,08,19,13.80
2023,10,07,08,20,13.80
2023,10,07,08,21,13.80
2023,10,07,08,22,13.80
2023,10,07,08,23,13.90
2023,10,07,08,24,13.90
2023,10,07,08,25,13.80
2023,10,07,08,26,13.80
2023,10,07,08,27,13.80
2023,10,07,08,28,13.80
2023,10,07,08,29,13.80
2023,10,07,08,30,13.80
2023,10,07,08,31,13.90
2023,10,07,08,32,13.90
2023,10,07,08,33,13.90
2023,10,07,08,34,13.90
2023,10,07,08,35,13.90
2023,10,07,08,36,13.90
2023,10,07,08,37,13.90
2023,10,07,08,38,13.90
2023,10,07,08,39,13.90
2023,10,07,08,40,13.90
2023,10,07,08,41,13.90
2023,10,07,08,42,13.90
2023,10,07,08,43,14.00
2023,10,07,08,44,14.00
2023,10,07,08,45,14.10
2023,10,07,08,46,14.10
2023,10,07,08,47,14.10
2023,10,07,08,48,14.20
2023,10,07,08,49,14.20
2023,10,07,08,50,14.20
2023,10,07,08,51,14.20
2023,10,07,08,52,14.20
2023,10,07,08,53,14.20
2023,10,07,08,54,14.20
2023,10,07,08,55,14.30
2023,10,07,08,56,14.30
2023,10,07,08,57,14.30
2023,10,07,08,58,14.40
2023,10,07,08,59,14.40
2023,10,07,09,00,14.40
2023,10,07,09,01,14.40
2023,10,07,09,02,14.50
2023,10,07,09,03,14.50
2023,10,07,09,04,14.50
2023,10,07,09,05,14.60
2023,10,07,09,06,14.60
2023,10,07,09,07,14.60
2023,10,07,09,08,14.60
2023,10,07,09,09,14.60
2023,10,07,09,10,14.60
2023,10,07,09,11,14.50
2023,10,07,09,12,14.50
2023,10,07,09,13,14.50
2023,10,07,09,14,14.50
2023,10,07,09,15,14.50
2023,10,07,09,16,14.50
2023,10,07,09,17,14.60
2023,10,07,09,18,14.60
2023,10,07,09,19,14.60
2023,10,07,09,20,14.60
2023,10,07,09,21,14.70
2023,10,07,09,22,14.70
2023,10,07,09,23,14.70
2023,10,07,09,24,14.70
2023,10,07,09,25,14.70
2023,10,07,09,26,14.80
2023,10,07,09,27,14.80
2023,10,07,09,28,14.80
2023,10,07,09,29,14.80
2023,10,07,09,30,14.90
2023,10,07,09,31,14.90
2023,10,07,09,32,14.90
2023,10,07,09,33,15.00
2023,10,07,09,34,15.00
2023,10,07,09,35,15.00
2023,10,07,09,36,15.00
2023,10,07,09,37,15.00
2023,10,07,09,38,15.10
2023,10,07,09,39,15.10
2023,10,07,09,40,15.10
2023,10,07,09,41,15.20
2023,10,07,09,42,15.20
2023,10,07,09,43,15.30
2023,10,07,09,44,15.40
2023,10,07,09,45,15.40
2023,10,07,09,46,15.50
2023,10,07,09,47,15.60
2023,10,07,09,48,15.60
2023,10,07,09,49,15.60
2023,10,07,09,50,15.60
2023,10,07,09,51,15.60
2023,10,07,09,52,15.60
2023,10,07,09,53,15.50
2023,10,07,09,54,15.50
2023,10,07,09,55,15.40
2023,10,07,09,56,15.40
2023,10,07,09,57,15.30
2023,10,07,09,58,15.30
2023,10,07,09,59,15.20
2023,10,07,10,00,15.20
2023,10,07,10,01,15.20
2023,10,07,10,02,15.20
2023,10,07,10,03,15.20
2023,10,07,10,04,15.10
2023,10,07,10,05,15.10
2023,10,07,10,06,15.10
2023,10,07,10,07,15.10
2023,10,07,10,08,15.10
2023,10,07,10,09,15.10
2023,10,07,10,10,15.10
2023,10,07,10,11,15.10
2023,10,07,10,12,15.10
2023,10,07,10,13,15.10
2023,10,07,10,14,15.10
2023,10,07,10,15,15.10
2023,10,07,10,16,15.00
2023,10,07,10,17,15.00
2023,10,07,10,18,15.00
2023,10,07,10,19,15.00
2023,10,07,10,20,15.10
2023,10,07,10,21,15.10
2023,10,07,10,22,15.20
2023,10,07,10,23,15.20
2023,10,07,10,24,15.20
2023,10,07,10,25,15.30
2023,10,07,10,26,15.30
2023,10,07,10,27,15.40
2023,10,07,10,28,15.40
2023,10,07,10,29,15.50
2023,10,07,10,30,15.60
2023,10,07,10,31,15.60
2023,10,07,10,32,15.70
2023,10,07,10,33,15.70
2023,10,07,10,34,15.80
2023,10,07,10,35,15.80
2023,10,07,10,36,15.90
2023,10,07,10,37,15.90
2023,10,07,10,38,16.00
2023,10,07,10,39,16.00
2023,10,07,10,40,16.10
2023,10,07,10,41,16.20
2023,10,07,10,42,16.20
2023,10,07,10,43,16.20
2023,10,07,10,44,16.30
2023,10,07,10,45,16.30
2023,10,07,10,46,16.30
2023,10,07,10,47,16.30
2023,10,07,10,48,16.30
2023,10,07,10,49,16.20
2023,10,07,10,50,16.20
2023,10,07,10,51,16.10
2023,10,07,10,52,16.00
2023,10,07,10,53,16.00
2023,10,07,10,54,16.00
2023,10,07,10,55,16.00
2023,10,07,10,56,16.00
2023,10,07,10,57,16.00
2023,10,07,10,58,16.10
2023,10,07,10,59,16.10
2023,10,07,11,00,16.10
2023,10,07,11,01,16.10
2023,10,07,11,02,16.20
2023,10,07,11,03,16.20
2023,10,07,11,04,16.20
2023,10,07,11,05,16.30
2023,10,07,11,06,16.30
2023,10,07,11,07,16.30
2023,10,07,11,08,16.20
2023,10,07,11,09,16.20
2023,10,07,11,10,16.10
2023,10,07,11,11,16.00
2023,10,07,11,12,15.90
2023,10,07,11,13,15.90
2023,10,07,11,14,15.90
2023,10,07,11,15,16.00
2023,10,07,11,16,16.00
2023,10,07,11,17,16.10
2023,10,07,11,18,16.20
2023,10,07,11,19,16.20
2023,10,07,11,20,16.30
2023,10,07,11,21,16.40
2023,10,07,11,22,16.50
2023,10,07,11,23,16.50
2023,10,07,11,24,16.60
2023,10,07,11,25,16.60
2023,10,07,11,26,16.70
2023,10,07,11,27,16.70
2023,10,07,11,28,16.70
2023,10,07,11,29,16.80
2023,10,07,11,30,16.80
2023,10,07,11,31,16.80
2023,10,07,11,32,16.70
2023,10,07,11,33,16.60
2023,10,07,11,34,16.60
2023,10,07,11,35,16.50
2023,10,07,11,36,16.50
2023,10,07,11,37,16.50
2023,10,07,11,38,16.50
2023,10,07,11,39,16.50
2023,10,07,11,40,16.50
2023,10,07,11,41,16.50
2023,10,07,11,42,16.50
2023,10,07,11,43,16.50
2023,10,07,11,44,16.50
2023,10,07,11,45,16.40
2023,10,07,11,46,16.40
2023,10,07,11,47,16.40
2023,10,07,11,48,16.40
2023,10,07,11,49,16.40
2023,10,07,11,50,16.50
2023,10,07,11,51,16.50
2023,10,07,11,52,16.50
2023,10,07,11,53,16.60
2023,10,07,11,54,16.70
2023,10,07,11,55,16.80
2023,10,07,11,56,16.80
2023,10,07,11,57,16.90
2023,10,07,11,58,16.80
2023,10,07,11,59,16.80
2023,10,07,12,00,16.80
2023,10,07,12,01,16.70
2023,10,07,12,02,16.60
2023,10,07,12,03,16.50
2023,10,07,12,04,16.50
2023,10,07,12,05,16.40
2023,10,07,12,06,16.30
2023,10,07,12,07,16.30
2023,10,07,12,08,16.20
2023,10,07,12,09,16.10
2023,10,07,12,10,16.10
2023,10,07,12,11,16.00
2023,10,07,12,12,15.90
2023,10,07,12,13,15.80
2023,10,07,12,14,15.80
2023,10,07,12,15,15.70
2023,10,07,12,16,15.70
2023,10,07,12,17,15.60
2023,10,07,12,18,15.60
2023,10,07,12,19,15.70
2023,10,07,12,20,15.70
2023,10,07,12,21,15.70
2023,10,07,12,22,15.80
2023,10,07,12,23,15.80
2023,10,07,12,24,15.80
2023,10,07,12,25,15.80
2023,10,07,12,26,15.90
2023,10,07,12,27,15.90
2023,10,07,12,28,15.80
2023,10,07,12,29,15.80
2023,10,07,12,30,15.80
2023,10,07,12,31,15.80
2023,10,07,12,32,15.70
2023,10,07,12,33,15.70
2023,10,07,12,34,15.70
2023,10,07,12,35,15.60
2023,10,07,12,36,15.60
2023,10,07,12,37,15.60
2023,10,07,12,38,15.60
2023,10,07,12,39,15.60
2023,10,07,12,40,15.60
2023,10,07,12,41,15.60
2023,10,07,12,42,15.60
2023,10,07,12,43,15.60
2023,10,07,12,44,15.60
2023,10,07,12,45,15.60
2023,10,07,12,46,15.70
2023,10,07,12,47,15.70
2023,10,07,12,48,15.80
2023,10,07,12,49,15.80
2023,10,07,12,50,15.90
2023,10,07,12,51,15.90
2023,10,07,12,52,15.90
2023,10,07,12,53,15.90
2023,10,07,12,54,15.90
2023,10,07,12,55,15.90
2023,10,07,12,56,15.90
2023,10,07,12,57,16.00
2023,10,07,12,58,16.00
2023,10,07,12,59,16.00
2023,10,07,13,00,16.00
2023,10,07,13,01,16.00
2023,10,07,13,02,16.00
2023,10,07,13,03,16.00
2023,10,07,13,04,16.00
2023,10,07,13,05,15.90
2023,10,07,13,06,15.90
2023,10,07,13,07,15.90
2023,10,07,13,08,15.90
2023,10,07,13,09,15.90
2023,10,07,13,10,15.80
2023,10,07,13,11,15.80
2023,10,07,13,12,15.80
2023,10,07,13,13,15.80
2023,10,07,13,14,15.90
2023,10,07,13,15,15.90
2023,10,07,13,16,15.90
2023,10,07,13,17,16.00
2023,10,07,13,18,16.10
2023,10,07,13,19,16.20
2023,10,07,13,20,16.30
2023,10,07,13,21,16.40
2023,10,07,13,22,16.50
2023,10,07,13,23,16.70
2023,10,07,13,24,16.80
2023,10,07,13,25,17.00
2023,10,07,13,26,17.20
2023,10,07,13,27,17.30
2023,10,07,13,28,17.50
2023,10,07,13,29,17.60
2023,10,07,13,30,17.80
2023,10,07,13,31,17.90
2023,10,07,13,32,18.10
2023,10,07,13,33,18.20
2023,10,07,13,34,18.30
2023,10,07,13,35,18.50
2023,10,07,13,36,18.60
2023,10,07,13,37,18.70
2023,10,07,13,38,18.80
2023,10,07,13,39,18.90
2023,10,07,13,40,19.00
2023,10,07,13,41,19.10
2023,10,07,13,42,19.10
2023,10,07,13,43,19.30
2023,10,07,13,44,19.30
2023,10,07,13,45,19.40
2023,10,07,13,46,19.50
2023,10,07,13,47,19.60
2023,10,07,13,48,19.70
2023,10,07,13,49,19.70
2023,10,07,13,50,19.80
2023,10,07,13,51,19.80
2023,10,07,13,52,19.90
2023,10,07,13,53,19.90
2023,10,07,13,54,19.90
2023,10,07,13,55,19.90
2023,10,07,13,56,20.00
2023,10,07,13,57,20.00
2023,10,07,13,58,20.00
2023,10,07,13,59,19.90
2023,10,07,14,00,19.90
2023,10,07,14,01,19.90
2023,10,07,14,02,19.80
2023,10,07,14,03,19.80
2023,10,07,14,04,19.80
2023,10,07,14,05,19.80
2023,10,07,14,06,19.80
2023,10,07,14,07,19.80
2023,10,07,14,08,19.80
2023,10,07,14,09,19.80
2023,10,07,14,10,19.80
2023,10,07,14,11,19.80
2023,10,07,14,12,19.80
2023,10,07,14,13,19.80
2023,10,07,14,14,19.70
2023,10,07,14,15,19.70
2023,10,07,14,16,19.60
2023,10,07,14,17,19.60
2023,10,07,14,18,19.50
2023,10,07,14,19,19.40
2023,10,07,14,20,19.40
2023,10,07,14,21,19.30
2023,10,07,14,22,19.30
2023,10,07,14,23,19.20
2023,10,07,14,24,19.20
2023,10,07,14,25,19.20
2023,10,07,14,26,19.10
2023,10,07,14,27,19.10
2023,10,07,14,28,19.10
2023,10,07,14,29,19.10
2023,10,07,14,30,19.10
2023,10,07,14,31,19.20
2023,10,07,14,32,19.20
2023,10,07,14,33,19.30
2023,10,07,14,34,19.30
2023,10,07,14,35,19.30
2023,10,07,14,36,19.30
2023,10,07,14,37,19.30
2023,10,07,14,38,19.30
2023,10,07,14,39,19.30
2023,10,07,14,40,19.40
2023,10,07,14,41,19.40
2023,10,07,14,42,19.40
2023,10,07,14,43,19.40
2023,10,07,14,44,19.40
2023,10,07,14,45,19.50
2023,10,07,14,46,19.60
2023,10,07,14,47,19.70
2023,10,07,14,48,19.80
2023,10,07,14,49,19.90
2023,10,07,14,50,19.90
2023,10,07,14,51,20.10
2023,10,07,14,52,20.20
2023,10,07,14,53,20.30
2023,10,07,14,54,20.40
2023,10,07,14,55,20.60
2023,10,07,14,56,20.70
2023,10,07,14,57,20.80
2023,10,07,14,58,20.90
2023,10,07,14,59,21.00
2023,10,07,15,00,21.10
2023,10,07,15,01,21.20
2023,10,07,15,02,21.30
2023,10,07,15,03,21.40
2023,10,07,15,04,21.50
2023,10,07,15,05,21.60
2023,10,07,15,06,21.70
2023,10,07,15,07,21.80
2023,10,07,15,08,21.80
2023,10,07,15,09,21.90
2023,10,07,15,10,22.00
2023,10,07,15,11,22.10
2023,10,07,15,12,22.20
2023,10,07,15,13,22.30
2023,10,07,15,14,22.30
2023,10,07,15,15,22.40
2023,10,07,15,16,22.50
2023,10,07,15,17,22.50
2023,10,07,15,18,22.60
2023,10,07,15,19,22.70
2023,10,07,15,20,22.80
2023,10,07,15,21,22.80
2023,10,07,15,22,22.90
2023,10,07,15,23,22.90
2023,10,07,15,24,23.00
2023,10,07,15,25,23.00
2023,10,07,15,26,23.00
2023,10,07,15,27,22.90
2023,10,07,15,28,22.80
2023,10,07,15,29,22.60
2023,10,07,15,30,22.40
2023,10,07,15,31,22.20
2023,10,07,15,32,22.00
2023,10,07,15,33,21.70
2023,10,07,15,34,21.50
2023,10,07,15,35,21.30
2023,10,07,15,36,21.10
2023,10,07,15,37,20.90
2023,10,07,15,38,20.80
2023,10,07,15,39,20.70
2023,10,07,15,40,20.60
2023,10,07,15,41,20.50
2023,10,07,15,42,20.40
2023,10,07,15,43,20.40
2023,10,07,15,44,20.40
2023,10,07,15,45,20.40
2023,10,07,15,46,20.40
2023,10,07,15,47,20.50
2023,10,07,15,48,20.50
2023,10,07,15,49,20.40
2023,10,07,15,50,20.40
2023,10,07,15,51,20.30
2023,10,07,15,52,20.30
2023,10,07,15,53,20.20
2023,10,07,15,54,20.20
2023,10,07,15,55,20.10
2023,10,07,15,56,20.10
2023,10,07,15,57,20.00
2023,10,07,15,58,20.00
2023,10,07,15,59,20.00
2023,10,07,16,00,20.00
2023,10,07,16,01,20.10
2023,10,07,16,02,20.20
2023,10,07,16,03,20.30
2023,10,07,16,04,20.40
2023,10,07,16,05,20.60
2023,10,07,16,06,20.70
2023,10,07,16,07,20.80
2023,10,07,16,08,20.90
2023,10,07,16,09,20.90
2023,10,07,16,10,20.90
2023,10,07,16,11,20.80
2023,10,07,16,12,20.70
2023,10,07,16,13,20.50
2023,10,07,16,14,20.30
2023,10,07,16,15,20.10
2023,10,07,16,16,20.00
2023,10,07,16,17,19.80
2023,10,07,16,18,19.70
2023,10,07,16,19,19.60
2023,10,07,16,20,19.50
2023,10,07,16,21,19.50
2023,10,07,16,22,19.40
2023,10,07,16,23,19.40
2023,10,07,16,24,19.40
2023,10,07,16,25,19.40
2023,10,07,16,26,19.30
2023,10,07,16,27,19.30
2023,10,07,16,28,19.30
2023,10,07,16,29,19.30
2023,10,07,16,30,19.30
2023,10,07,16,31,19.30
2023,10,07,16,32,19.30
2023,10,07,16,33,19.30
2023,10,07,16,34,19.30
2023,10,07,16,35,19.30
2023,10,07,16,36,19.30
2023,10,07,16,37,19.30
2023,10,07,16,38,19.30
2023,10,07,16,39,19.30
2023,10,07,16,40,19.30
2023,10,07,16,41,19.30
2023,10,07,16,42,19.40
2023,10,07,16,43,19.40
2023,10,07,16,44,19.40
2023,10,07,16,45,19.40
2023,10,07,16,46,19.40
2023,10,07,16,47,19.40
2023,10,07,16,48,19.50
2023,10,07,16,49,19.50
2023,10,07,16,50,19.50
2023,10,07,16,51,19.60
2023,10,07,16,52,19.60
2023,10,07,16,53,19.60
2023,10,07,16,54,19.60
2023,10,07,16,55,19.60
2023,10,07,16,56,19.60
2023,10,07,16,57,19.60
2023,10,07,16,58,19.60
2023,10,07,16,59,19.50
2023,10,07,17,00,19.50
2023,10,07,17,01,19.40
2023,10,07,17,02,19.40
2023,10,07,17,03,19.30
2023,10,07,17,04,19.30
2023,10,07,17,05,19.10
2023,10,07,17,06,19.00
2023,10,07,17,07,18.90
2023,10,07,17,08,18.80
2023,10,07,17,09,18.60
2023,10,07,17,10,18.50
2023,10,07,17,11,18.40
2023,10,07,17,12,18.20
2023,10,07,17,13,18.10
2023,10,07,17,14,18.00
2023,10,07,17,15,18.00
2023,10,07,17,16,17.80
2023,10,07,17,17,17.80
2023,10,07,17,18,17.70
2023,10,07,17,19,17.70